STARLINK-35765

Last updated on Fri Dec 19 2025 00:02:10 GMT+0000 (Coordinated Universal Time)

1 67041U 25294M 25351.83335648 -.01339969 53500-3 -32118-2 0 9991 2 67041 42.9999 151.2817 0001779 279.0482 137.2462 15.95662670 2120
UTC large
Height (km)
Speed (km/s)
/
Latitude / Longitude
Inclination (degrees)
Orbital Period (minutes)
Azimuth
Elevation
Range (km)
Doppler Factor

Next 0 passes for location: London (51.5072 / 0.1276)

Sorry there are no passes over London.